Flag for Peru Weather past 2 weeks in Arequipa, Arequipa, Peru

Now
52 °F

Sunny.


Feels Like: 51 °F
Forecast: 47 / 71 °F
Wind: 3 mph from Northeast

Location: Arequipa Airport

Current Time: Dec 19, 2014 at 6:19:43 AM

Latest Report: Dec 19, 2014 at 6:00 AM


Visibility: 10 mi

Pressure: 30.27 "Hg

Humidity: 54%

Dew point: 36 °F

Location of ArequipaLocation

Historic Weather in Arequipa — Graph

°F

Arequipa temperature yesterday

Maximum temperature yesterday: 66 °F (at 11:00 AM)
Minimum temperature yesterday: 48 °F (at 4:00 AM)
Average temperature yesterday: 58 °F

Past Weeks' High & Low Weather Summary

 TemperatureHumidityPressure
High72 °F (Dec 7, 11:00 AM)82% (Dec 10, 1:00 AM)30.39 "Hg (Dec 10, 1:00 AM)
Low34 °F (Dec 9, 2:00 AM)12% (Dec 14, 12:00 PM)30.18 "Hg (Dec 8, 2:00 PM)
Average59 °F44%30.29 "Hg
* Reported Dec 4 5:00 AM — Dec 19 5:00 AM, Arequipa, Weather by CustomWeather, © 2014

Note: Actual official high and low records may vary slightly from our data, if they occured in-between our weather recording intervals... More about our weather records

Advertising

Arequipa weather history for previous 24 hours

 ConditionsComfort  
Time TempWeatherWind HumidityBarometerVisibility
5:00 AM
Dec 19
50 °FClear.3 mph58%30.27 "Hg10 mi
4:00 AM52 °FClear.5 mph54%30.24 "Hg10 mi
3:00 AM52 °FClear.5 mph58%30.27 "Hg10 mi
2:00 AM54 °FClear.3 mph54%30.27 "Hg10 mi
1:00 AM55 °FClear.No wind51%30.30 "Hg10 mi
12:00 AM55 °FClear.No wind47%30.30 "Hg10 mi
11:00 PM
Dec 18
55 °FClear.3 mph51%30.33 "Hg10 mi
10:00 PM57 °FClear.No wind48%30.33 "Hg10 mi
9:00 PM57 °FClear.No wind48%30.33 "Hg10 mi
8:00 PM57 °FClear.3 mph51%30.33 "Hg10 mi
7:00 PM57 °FPassing clouds.7 mph51%30.30 "HgN/A
6:00 PM61 °FScattered clouds.7 mph45%30.27 "HgN/A
5:00 PM63 °FScattered clouds.10 mph37%30.27 "HgN/A
4:00 PM63 °FScattered clouds.15 mph39%30.27 "HgN/A
3:00 PM64 °FPassing clouds.15 mph32%30.24 "HgN/A
2:00 PM66 °FPassing clouds.13 mph26%30.27 "HgN/A
1:00 PM66 °FPassing clouds.13 mph26%30.27 "HgN/A
12:00 PM66 °FPassing clouds.10 mph26%30.30 "HgN/A
11:00 AM66 °FPassing clouds.10 mph26%30.30 "HgN/A
10:00 AM64 °FPassing clouds.10 mph26%30.33 "HgN/A
9:00 AM63 °FPassing clouds.6 mph37%30.33 "HgN/A
8:00 AM61 °FPassing clouds.5 mph42%30.33 "HgN/A
7:00 AM59 °FSunny.2 mph45%30.33 "Hg10 mi
6:00 AM50 °FSunny.3 mph54%30.30 "Hg10 mi
Weather by CustomWeather, © 2014

See weather overviewHow to use our weather pages